Location: Cl�ty
(50.6534°N, 2.1856°E)
Time: 14:21:33
(UTC+00:00)

Daily predictions for brighter satellites

Satellite Brightness Start Highest point End
(mag) Time Altitude Azimuth Time Altitude Azimuth Time Altitude Azimuth
Cosmos 304 Rocket 3.8 18:44:10 10° NNW 18:49:00 88° ENE 18:53:47 10° SSE
Cosmos 1709 Rocket 4.2 18:43:25 10° N 18:49:30 51° ENE 18:55:28 10° SSE
COSMO-SKYMED 1 4.0 18:45:23 10° N 18:49:32 44° WNW 18:53:39 10° SW
STARLINK-1232 3.3 18:47:02 10° SW 18:50:02 45° SSE 18:53:02 10° ENE
STARLINK-1217 3.3 18:47:29 10° SW 18:50:29 45° SSE 18:53:30 10° ENE
Cosmos 2084 3.9 18:46:10 10° SW 18:50:39 71° NW 18:55:08 10° NE
SeaSat 1 2.8 18:45:49 10° NNE 18:50:46 71° NW 18:55:40 10° SW
STARLINK-1208 3.3 18:47:54 10° SW 18:50:55 46° SSE 18:53:57 10° ENE
STARLINK-1229 3.3 18:48:22 10° SW 18:51:23 46° SSE 18:54:23 10° ENE
Cosmos 1953 4.2 18:49:57 10° ESE 18:51:30 12° E 18:53:04 10° ENE
STARLINK-1116 4.1 18:47:37 10° WNW 18:51:35 55° SSW 18:55:31 10° SE
STARLINK-1236 4.2 18:47:54 10° SSW 18:51:39 37° SE 18:55:26 10° ENE
STARLINK-1271 3.2 18:48:49 10° SW 18:51:49 46° SSE 18:54:51 10° ENE
STARLINK-1270 3.2 18:49:17 10° SW 18:52:18 46° SSE 18:55:19 10° ENE
STARLINK-1154 3.2 18:49:44 10° SW 18:52:44 47° SSE 18:55:45 10° ENE
STARLINK-1101 3.7 18:48:52 10° WNW 18:53:01 74° NNE 18:57:10 10° E
STARLINK-1197 3.2 18:50:37 10° SW 18:53:38 47° SSE 18:56:40 10° ENE
STARLINK-1189 3.2 18:51:05 10° SW 18:54:05 48° SSE 18:57:06 10° ENE
SL-08 ROCKET BODY 4.5 18:48:13 10° N 18:54:25 83° E 19:00:27 10° S
Cosmos 1269 Rocket 4.4 18:49:48 10° S 18:54:46 43° ESE 18:59:47 10° NE
STARLINK-1187 3.1 18:51:52 10° SW 18:54:55 53° SSE 18:58:00 10° ENE
STARLINK-1188 3.2 18:51:58 10° SW 18:55:00 48° SSE 18:58:01 10° ENE
STARLINK-1198 3.2 18:51:59 10° SW 18:55:00 48° SSE 18:58:01 10° ENE
MONITOR-E 4.5 18:53:04 10° SE 18:55:32 35° ENE 18:58:00 10° N
STARLINK-1235 3.0 18:52:31 10° SW 18:55:37 59° SSE 18:58:44 10° ENE
CZ-4C R/B 3.8 18:50:38 10° W 18:55:44 36° NNW 19:01:46 10° NE
STARLINK-1199 3.2 18:53:53 10° SW 18:56:56 50° SSE 19:00:00 10° ENE
STARLINK-1191 3.1 18:54:20 10° SW 18:57:23 50° SSE 19:00:27 10° ENE
STARLINK-1210 3.1 18:54:47 10° SW 18:57:50 51° SSE 19:00:54 10° ENE
STARLINK-1102 3.7 18:53:50 10° WNW 18:58:00 76° NNE 19:02:09 10° E
STARLINK-1221 3.1 18:55:13 10° SW 18:58:17 51° SSE 19:01:22 10° ENE
STARLINK-1219 3.1 18:55:41 10° SW 18:58:44 51° SSE 19:01:49 10° ENE
STARLINK-1222 3.1 18:56:08 10° SW 18:59:11 52° SSE 19:02:16 10° ENE
ISS -3.7 18:55:50 10° W 18:59:13 78° N 19:02:34 10° E
STARLINK-1211 3.1 18:56:35 10° SW 18:59:38 52° SSE 19:02:43 10° ENE
STARLINK-1214 3.1 18:57:01 10° SW 19:00:05 52° SSE 19:03:10 10° ENE
YAOGAN 1 4.3 18:56:27 10° SSW 19:00:28 37° W 19:04:31 10° NNW
STARLINK-1245 3.1 18:57:30 10° SW 19:00:32 53° SSE 19:03:35 10° ENE
Cosmos 2297 3.7 18:54:55 10° NNW 19:00:38 80° ENE 19:06:20 10° SSE
STARLINK-1094 4.3 18:56:53 10° WNW 19:00:48 49° SSW 19:04:42 10° SE
STARLINK-1238 3.1 18:57:53 10° SW 19:00:57 53° SSE 19:04:02 10° ENE
STARLINK-1269 4.1 18:57:35 10° SW 19:01:26 42° SSE 19:05:18 10° ENE
STARLINK-1205 3.0 18:58:48 10° SW 19:01:52 54° SSE 19:04:55 10° ENE
BREEZE-M DEB (TANK) 4.3 18:51:51 10° W 19:01:54 83° S 19:05:17 10° E
STARLINK-1204 3.0 18:59:17 10° SW 19:02:20 54° SSE 19:05:24 10° ENE
Cosmos 2084 Rocket 4.1 18:58:22 10° NW 19:02:40 44° NE 19:06:57 10° ESE
Cosmos 1455 Rocket 3.0 18:58:26 10° S 19:02:42 61° E 19:07:02 10° NNE
STARLINK-1111 3.7 18:58:50 10° WNW 19:03:00 79° NNE 19:07:06 10° ESE
STARLINK-1117 4.4 19:01:44 10° WNW 19:05:38 46° SSW 19:09:31 10° SE
STARLINK-1200 4.0 19:02:20 10° SW 19:06:14 44° SSE 19:10:08 10° ENE
S3M 4.1 19:00:19 10° S 19:06:42 88° E 19:13:09 10° N
Cosmos 2237 Rocket 2.4 19:01:30 10° SSW 19:07:07 81° WNW 19:12:49 10° NNE
Cosmos 1892 Rocket 4.1 19:03:14 10° NNW 19:07:42 66° W 19:12:08 10° S
STARLINK-1073 3.7 19:03:49 10° WNW 19:07:59 81° NNE 19:11:53 12° ESE
CZ-2C R/B 3.8 19:04:22 10° NE 19:08:07 20° E 19:11:51 10° SE
Cosmos 1626 Rocket 3.8 19:04:11 10° N 19:08:29 49° ENE 19:12:43 10° SSE
STARLINK-1078 4.4 19:06:12 10° WNW 19:10:04 43° SSW 19:13:55 10° SE
NOSS 2-1 (C) 4.0 19:06:47 10° WSW 19:10:08 50° NW 19:13:57 10° NE
Cosmos 1805 3.7 19:07:01 10° SSW 19:10:54 69° W 19:14:49 10° N
STARLINK-1192 3.9 19:07:02 10° SW 19:10:58 47° SSE 19:14:54 10° ENE
Cosmos 2278 Rocket 4.1 19:06:26 10° NW 19:11:21 31° WSW 19:16:15 10° SSW
Meteor 2-5 Rocket 4.4 19:06:25 10° NNW 19:12:00 60° W 19:17:28 10° S
STARLINK-1121 3.6 19:08:47 10° WNW 19:12:57 84° NNE 19:16:39 13° ESE
NOSS 2-1 (D) 4.2 19:11:02 10° WSW 19:14:22 46° NW 19:18:09 10° NE
Cosmos 292 Rocket 4.5 19:09:58 10° NNW 19:14:27 37° ENE 19:18:32 12° ESE
STARLINK-1244 3.8 19:11:55 10° SW 19:15:52 50° SSE 19:19:50 10° ENE
Cosmos 1602 Rocket 3.9 19:12:09 10° N 19:16:30 47° ENE 19:20:46 10° SSE
ARGOS 3.1 19:11:29 10° SSE 19:16:53 77° ENE 19:22:17 10° NNW
STARLINK-1106 3.6 19:13:45 10° WNW 19:17:55 87° NNE 19:21:25 14° ESE
Okean 1-7 Rocket 4.3 19:15:23 10° NNW 19:19:44 58° W 19:24:01 10° S
STARLINK-1138 3.7 19:16:28 10° SW 19:20:27 53° SSE 19:24:28 10° ENE
STARLINK-1234 2.6 19:18:22 10° WSW 19:21:21 85° SSE 19:24:04 12° ENE
MOS 1 Rocket 4.5 19:18:11 10° NE 19:22:37 27° E 19:27:10 10° SSE
STARLINK-1112 3.6 19:18:46 10° WNW 19:22:56 90° SW 19:26:14 16° ESE
Cosmos 494 Rocket 4.0 19:17:55 10° SSW 19:23:05 86° WNW 19:28:20 10° NNE
Meteor 1-24 Rocket 4.2 19:17:47 10° NNW 19:23:17 64° W 19:28:36 10° S
USA 186 2.0 19:20:38 10° S 19:24:04 82° WSW 19:27:27 10° NNW
STARLINK-1143 3.7 19:21:20 10° SW 19:25:20 57° SSE 19:29:16 11° ENE
MetOp-A 4.3 19:22:22 10° SE 19:27:36 56° ENE 19:32:51 10° N
STARLINK-1128 3.6 19:23:44 10° WNW 19:27:54 87° SSW 19:31:01 17° ESE
CZ-2C R/B 3.0 19:24:16 10° SSE 19:29:18 82° WSW 19:34:10 10° NNW
Cosmos 1544 Rocket 3.5 19:25:53 10° S 19:30:17 87° E 19:34:46 10° N
Cosmos 1437 4.2 19:28:26 10° NNE 19:30:43 19° ENE 19:31:25 18° E
Cosmos 1470 2.7 19:28:29 10° S 19:32:17 58° E 19:36:08 10° NNE
STARLINK-1113 3.6 19:28:43 10° WNW 19:32:53 83° SSW 19:35:47 19° ESE
STARLINK-1241 3.6 19:29:38 10° SW 19:33:38 63° SSE 19:37:13 13° ENE
Cosmos 1825 Rocket 4.4 19:31:29 10° N 19:35:27 31° ENE 19:37:53 19° ESE
SPOT 3 Rocket 3.5 19:30:51 10° SSE 19:36:02 71° ENE 19:41:15 10° NNW
IRIDIUM 103 4.5 19:31:13 10° N 19:36:21 52° E 19:41:26 10° SSE
STARLINK-1119 3.6 19:33:42 10° WNW 19:37:51 80° SSW 19:40:34 21° ESE
STARLINK-1239 3.5 19:34:33 10° SW 19:38:33 66° SSE 19:41:56 14° ENE
Cosmos 2369 Rocket 2.4 19:33:21 10° NNW 19:39:00 57° NE 19:43:14 18° SE
SJ-6B 3.2 19:38:07 10° S 19:42:11 72° WSW 19:46:20 10° NNW
STARLINK-1114 3.6 19:38:43 10° WNW 19:42:52 76° SSW 19:45:24 23° ESE
STARLINK-1240 3.5 19:39:14 10° WSW 19:43:16 70° SSE 19:46:29 16° ENE
Cosmos 1733 4.4 19:39:39 10° SSW 19:43:17 45° WNW 19:46:56 10° N
Cosmos 1726 3.1 19:42:57 23° ESE 19:44:07 27° E 19:47:19 10° NNE
Aureole 2 Rocket 2.7 19:40:49 10° NNW 19:44:16 48° ENE 19:45:56 25° SE
Cosmos 1758 Rocket 3.9 19:41:08 10° N 19:45:20 43° ENE 19:47:54 21° SE
Ariane Rocket 4.1 19:40:28 10° S 19:45:20 46° W 19:50:14 10° NNW
Cosmos 1758 3.3 19:42:11 10° S 19:46:16 76° E 19:50:23 10° NNE
STARLINK-1130 (DARKSAT) 3.7 19:43:41 10° WNW 19:47:49 72° SSW 19:50:10 25° SE
STARLINK-1216 3.5 19:43:58 10° WSW 19:48:01 73° SSE 19:51:02 17° ENE
CZ-2C R/B 3.8 19:43:49 10° NNE 19:48:34 63° ESE 19:53:13 10° S
ATLAS CENTAUR R/B 4.1 19:47:57 10° NW 19:50:03 13° NNW 19:52:05 10° NNE
STARLINK-1209 2.9 19:48:23 10° W 19:51:18 68° NNW 19:52:50 25° ENE
Cosmos 1953 Rocket 4.5 19:47:45 10° N 19:51:45 31° ENE 19:53:22 25° ESE
STARLINK-1237 3.5 19:48:44 10° WSW 19:52:47 77° SSE 19:55:38 19° ENE
STARLINK-1084 3.7 19:48:39 10° WNW 19:52:47 68° SSW 19:54:56 27° SE
STARLINK-1228 2.9 19:50:35 10° W 19:53:28 66° NNW 19:54:50 27° ENE
Cosmos 2184 Rocket 4.1 19:48:07 10° N 19:54:25 61° ENE 19:59:37 15° SSE
IRIDIUM 106 4.3 19:49:26 10° N 19:54:42 73° E 19:59:54 10° S
Terra 3.8 19:53:53 13° ENE 19:55:08 14° NE 19:57:30 10° NNE
STARLINK-1202 3.4 19:53:27 10° WSW 19:57:31 81° SSE 20:00:11 21° ENE
STARLINK-1098 3.8 19:53:39 10° WNW 19:57:46 65° SSW 19:59:43 29° SE
Spot 2 Rocket 4.1 19:55:41 24° ESE 19:58:13 39° ENE 20:02:58 10° N
Cosmos 1606 Rocket 4.3 19:59:07 28° ESE 20:00:20 33° E 20:04:20 10° NNE
Cosmos 1943 Rocket 2.2 19:54:54 10° NNW 20:00:28 85° WSW 20:04:35 19° SSE
Meteor 1-21 Rocket 4.1 19:55:23 10° NNW 20:01:00 87° ENE 20:06:08 12° SSE
ERBS 3.9 19:58:47 10° W 20:01:53 32° NNW 20:04:36 12° NE
STARLINK-1123 3.8 19:58:38 10° WNW 20:02:43 61° SSW 20:04:30 31° SE
Cosmos 1943 3.9 20:01:04 17° SSE 20:04:24 31° ESE 20:09:18 10° NE
STARLINK-67 3.0 20:02:10 10° W 20:04:41 50° N 20:05:16 40° NE
STARLINK-1246 3.5 20:00:38 10° WSW 20:04:44 86° SSE 20:07:11 23° ENE
SL-8 R/B 3.8 20:00:42 10° W 20:05:26 63° S 20:07:34 31° ESE
Meteor 2-10 4.2 20:01:31 10° S 20:06:43 54° E 20:12:08 10° NNE
STARLINK-1201 3.1 20:04:07 10° W 20:07:22 71° NNW 20:08:41 33° ENE
STARLINK-1097 3.9 20:03:36 10° WNW 20:07:41 58° SSW 20:09:16 33° SE
Cosmos 1626 4.3 20:04:44 10° NNW 20:07:53 26° W 20:11:00 10° SSW
Resurs 1-3 3.7 20:05:32 15° S 20:09:11 75° WSW 20:13:36 10° NNW
ATLAS 2AS CENTAUR R/B 3.3 20:02:21 10° NW 20:09:59 54° NE 20:14:21 25° ESE
STARLINK-1224 3.5 20:07:45 10° WSW 20:11:51 89° N 20:13:57 27° ENE
STARLINK-1099 4.0 20:08:36 10° WNW 20:12:39 54° SSW 20:14:04 35° SSE
STARLINK-1203 3.5 20:09:08 10° WSW 20:13:08 85° NNW 20:15:06 29° ENE
Cosmos 2154 Rocket 4.1 20:09:13 10° N 20:15:30 57° ENE 20:18:59 27° SE
USA 234 3.2 20:09:15 10° ENE 20:15:47 65° SE 20:22:16 10° SW
H-2A R/B 3.8 20:11:22 10° SSW 20:16:05 32° W 20:20:44 10° NNW
STARLINK-1225 3.5 20:12:20 10° WSW 20:16:26 86° NNW 20:18:23 30° ENE
USA 245 4.4 20:15:17 32° SE 20:17:26 52° ENE 20:23:11 10° N
STARLINK-1104 4.0 20:13:35 10° WNW 20:17:37 51° SSW 20:18:51 37° SSE
DMSP B5D2-2 4.0 20:12:51 10° NNE 20:18:06 81° ESE 20:23:19 10° SSW
Aureole 3 3.8 20:14:02 10° SSW 20:18:10 79° WNW 20:23:33 10° N
Resurs 01 Rocket 1.6 20:16:28 24° SSE 20:19:05 83° WSW 20:23:32 10° NNW
Cosmos 1328 3.9 20:15:42 10° N 20:19:39 55° ENE 20:20:24 46° ESE
STARLINK-1233 3.2 20:17:16 10° W 20:20:24 63° N 20:21:02 48° NE
STARLINK-1212 3.2 20:17:44 10° W 20:20:51 62° N 20:21:27 49° NE
Cosmos 921 Rocket 4.4 20:17:43 10° N 20:21:02 22° NE 20:21:21 22° ENE
STARLINK-1230 3.5 20:17:06 10° WSW 20:21:11 83° NNW 20:22:57 33° ENE
STARLINK-1105 3.2 20:18:10 10° W 20:21:17 62° NNW 20:21:53 49° NE
SL-16 R/B 2.8 20:16:07 10° SW 20:21:42 59° NW 20:27:20 10° NNE
STARLINK-1206 3.2 20:18:40 10° W 20:21:46 62° N 20:22:19 50° NE
STARLINK-1247 3.2 20:19:07 10° W 20:22:12 62° N 20:22:44 51° NE
STARLINK-1144 4.1 20:18:35 10° WNW 20:22:35 48° SSW 20:23:38 38° SSE
STARLINK-1227 3.2 20:19:32 10° W 20:22:39 62° N 20:23:12 50° NE
Abrixas rocket 4.4 20:20:09 10° SW 20:20:46 14° SSW 20:20:46 14° SSW
STARLINK-1218 3.2 20:20:01 10° W 20:23:07 61° N 20:23:36 52° NE
Cosmos 2228 3.1 20:22:40 44° SE 20:23:24 50° E 20:27:35 10° NNE
STARLINK-1226 3.2 20:20:28 10° W 20:23:34 61° N 20:24:03 52° NE
STARLINK-1254 3.2 20:20:53 10° W 20:24:00 61° N 20:24:30 52° NE
STARLINK-1215 3.2 20:21:23 10° W 20:24:28 61° N 20:24:54 53° NNE
STARLINK-1231 3.2 20:21:49 10° W 20:24:55 61° N 20:25:19 53° NNE
STARLINK-1232 3.2 20:22:44 10° W 20:25:50 60° N 20:26:12 54° NNE
STARLINK-1243 3.6 20:21:56 10° WSW 20:26:01 81° NNW 20:27:36 36° ENE
STARLINK-1217 3.2 20:23:10 10° W 20:26:17 60° N 20:26:38 55° NNE
STARLINK-1208 3.2 20:23:35 10° W 20:26:42 60° N 20:27:05 54° NNE
STARLINK-1229 3.2 20:24:05 10° W 20:27:10 60° N 20:27:30 55° NNE
Cosmos 1953 2.5 20:23:21 10° SSW 20:27:18 72° W 20:31:18 10° N
STARLINK-1103 4.2 20:23:34 10° WNW 20:27:32 45° SSW 20:28:25 38° S
STARLINK-1271 3.2 20:24:32 10° W 20:27:37 60° N 20:27:56 55° NNE
STARLINK-1270 3.2 20:25:00 10° W 20:28:05 59° N 20:28:22 56° NNE
STARLINK-1154 3.2 20:25:27 10° W 20:28:32 59° N 20:28:48 56° NNE
STARLINK-1197 3.2 20:26:21 10° W 20:29:26 59° N 20:29:40 57° NNE
STARLINK-1189 3.2 20:26:48 10° W 20:29:54 59° N 20:30:06 57° NNE
Cosmos 1992 Rocket 4.3 20:25:00 10° NNW 20:30:11 64° WSW 20:33:07 25° S
STARLINK-1187 3.3 20:27:40 10° W 20:30:46 57° N 20:30:59 55° NNE
STARLINK-1198 3.2 20:27:42 10° W 20:30:47 59° N 20:30:58 57° N
STARLINK-1188 3.2 20:27:43 10° W 20:30:48 59° N 20:30:59 57° N
STARLINK-1236 3.6 20:26:44 10° WSW 20:30:49 78° NNW 20:32:12 40° ENE
STARLINK-1235 3.3 20:28:23 10° W 20:31:29 56° N 20:31:42 54° NNE
STARLINK-1101 4.3 20:28:34 10° WNW 20:32:30 42° SSW 20:33:11 38° S
STARLINK-1199 3.3 20:29:39 10° W 20:32:46 58° N 20:32:54 58° N
STARLINK-1191 3.3 20:30:06 10° W 20:33:12 58° N 20:33:19 58° N
STARLINK-1210 3.3 20:30:33 10° W 20:33:40 58° N 20:33:46 58° N
STARLINK-1221 3.3 20:31:00 10° W 20:34:07 58° N 20:34:12 58° N
Nadezhda 1 Rocket 4.0 20:29:47 20° S 20:34:19 65° E 20:40:39 10° NNE
STARLINK-1219 3.3 20:31:28 10° W 20:34:34 58° N 20:34:38 58° N
STARLINK-1222 3.3 20:31:55 10° W 20:35:01 58° N 20:35:04 58° N
STARLINK-1211 3.3 20:32:22 10° W 20:35:29 58° N 20:35:30 57° N
STARLINK-1214 3.3 20:32:49 10° W 20:35:56 57° N 20:35:56 57° N
ISS -3.0 20:32:43 10° W 20:35:39 42° SW 20:35:39 42° SW
STARLINK-1245 3.4 20:33:17 10° W 20:36:20 57° NNW 20:36:20 57° NNW
STARLINK-1238 3.4 20:33:41 10° W 20:36:46 57° N 20:36:46 57° N
STARLINK-1102 4.4 20:33:33 10° WNW 20:37:26 39° SW 20:37:58 37° SSW
STARLINK-1205 3.4 20:34:37 10° W 20:37:37 56° NNW 20:37:37 56° NNW
STARLINK-1204 3.4 20:35:06 10° W 20:38:03 56° NNW 20:38:03 56° NNW
STARLINK-1269 3.7 20:36:39 10° W 20:40:44 74° NNW 20:41:43 49° ENE
Cosmos 2058 Rocket 3.6 20:42:38 42° ENE 20:42:38 42° ENE 20:46:24 10° NNE
STARLINK-1111 4.5 20:38:34 10° WNW 20:42:24 37° SW 20:42:45 36° SSW
MetOp-B 4.1 20:40:10 34° SSE 20:42:34 85° WSW 20:47:59 10° NNW
Cosmos 1703 3.2 20:39:18 10° NNW 20:43:15 80° W 20:43:49 63° SSW
Cosmos 1603 3.5 20:37:48 10° SSW 20:43:24 71° ESE 20:49:01 10° NNE
Cosmos 2251 Rocket 3.5 20:38:59 10° SSW 20:44:21 84° WNW 20:49:47 10° NNE
SPOT 5 3.3 20:44:26 37° ENE 20:44:26 37° ENE 20:48:23 10° N
Meteor 1-16 Rocket 4.0 20:40:19 15° S 20:44:51 89° W 20:50:23 10° NNE
STARLINK-1200 3.7 20:41:29 10° W 20:45:33 72° NNW 20:46:21 54° NE
CZ-4C R/B 4.3 20:40:55 10° NW 20:46:06 27° N 20:52:04 10° ENE
Cosmos 2074 Rocket 4.5 20:41:48 10° NNW 20:47:57 59° W 20:53:00 16° SSW
CZ-2C R/B 2.8 20:43:47 10° N 20:48:57 69° WNW 20:54:05 10° SSW
IGS 5A 3.3 20:49:02 69° E 20:49:07 69° ENE 20:53:16 10° N
ERS-1 Rocket 3.1 20:48:38 50° E 20:49:17 53° ENE 20:54:12 10° N
STARLINK-1192 3.7 20:46:15 10° W 20:50:20 70° NNW 20:50:56 59° NE
Landsat 7 3.7 20:49:39 60° SE 20:50:28 75° ENE 20:55:14 10° NNW
STARLINK-1244 3.7 20:51:12 10° W 20:55:17 68° N 20:55:40 63° NNE
STARLINK-1138 3.8 20:55:45 10° W 20:59:50 67° N 21:00:03 65° NNE
Cosmos 1656 Rocket 3.7 20:54:57 10° NNW 21:00:40 79° WSW 21:02:03 53° SSE
MOS 1 Rocket 4.3 20:56:03 10° N 21:01:05 53° WNW 21:06:18 10° SW
Meteor 1-11 4.3 20:56:44 10° NNW 21:02:33 78° W 21:04:29 44° S
STARLINK-1143 3.8 21:00:40 10° W 21:04:45 66° N 21:04:46 66° N
Aureole 1 Rocket 4.3 21:01:51 34° S 21:05:14 59° ESE 21:11:36 10° NNE
CARTOSAT-1 3.8 21:07:29 58° NE 21:07:29 58° NE 21:11:18 10° N
Cosmos 1726 Rocket 3.8 21:10:43 55° SW 21:11:26 65° WNW 21:15:52 10° N
STARLINK-1241 4.0 21:08:55 10° W 21:12:34 59° NW 21:12:34 59° NW
COSMOS 2455 3.1 21:08:12 10° NNW 21:14:10 56° NE 21:15:09 50° E
STARLINK-1239 4.2 21:13:55 10° W 21:17:22 54° NW 21:17:22 54° NW
Cosmos 1726 4.2 21:17:22 18° WSW 21:19:17 27° WNW 21:22:33 10° N
In-Cosmos 22 Rocket 4.4 21:14:16 10° N 21:20:00 55° ENE 21:20:10 55° E
Cosmos 2341 Rocket 4.0 21:14:49 10° N 21:21:13 87° W 21:22:43 56° S
Cosmos 1461 3.6 21:16:58 10° NW 21:20:56 53° NNE 21:20:56 53° NNE
STARLINK-1240 4.4 21:18:40 10° W 21:21:54 50° NW 21:21:54 50° NW
Cosmos 2369 Rocket 3.7 21:17:52 10° NW 21:22:44 29° WSW 21:25:03 22° SW
Cosmos 1908 4.2 21:24:02 44° WNW 21:24:02 44° WNW 21:27:31 10° N
NOSS 3-4 (A) 3.7 21:21:37 10° NW 21:28:32 81° SW 21:30:09 58° SSE
NOSS 3-4 (C) 3.7 21:21:43 10° NW 21:28:38 82° SW 21:30:14 58° SSE
ATLAS CENTAUR R/B 3.9 21:28:40 10° NNW 21:30:39 13° NNE 21:31:52 12° NNE
Terra 2.0 21:32:45 64° NNE 21:32:45 64° NNE 21:36:53 10° NNW
NOSS 3-3 (A) 4.2 21:33:18 10° SW 21:39:17 72° NW 21:46:09 10° NE
NOSS 3-3 (C) 4.1 21:33:24 10° SW 21:39:24 72° NW 21:46:15 10° NE
SPOT 1/Viking Rocket 4.2 21:41:28 46° WSW 21:42:01 48° W 21:47:06 10° NNW
Cosmos 1943 Rocket 4.5 21:40:14 10° WNW 21:43:23 16° W 21:46:08 11° SW
Cosmos 1943 3.8 21:42:38 10° SW 21:48:10 55° NW 21:53:47 10° NNE
Cosmos 2218 Rocket 3.8 21:42:05 10° N 21:48:17 88° W 21:48:36 82° S
Cosmos 1340 Rocket 4.4 21:51:02 35° NNW 21:51:02 35° NNW 21:53:50 10° N
Cosmos 1140 Rocket 4.3 21:56:03 42° NNE 21:56:03 42° NNE 21:59:28 10° NNE
Resurs 01 Rocket 4.4 21:55:08 10° W 21:56:19 11° W 21:57:29 10° WNW
USA 234 3.6 21:52:22 10° ENE 21:58:50 64° NNW 22:05:17 10° W
Cosmos 2181 Rocket 4.0 22:00:16 74° WSW 22:00:43 78° W 22:06:59 10° N
ATLAS 2AS CENTAUR R/B 3.1 21:53:44 10° NW 22:01:06 54° WSW 22:01:48 52° SW
Cosmos 407 Rocket 4.0 22:06:47 55° NNW 22:06:47 55° NNW 22:11:10 10° NNE
Iridium 4 Rocket 4.5 22:05:43 10° NNW 22:08:42 36° NW 22:08:42 36° NW
Cosmos 1697 Rocket 3.9 22:05:12 10° NNW 22:10:12 33° NE 22:10:12 33° NE
Mayak 1.0 22:14:10 10° NNE 22:15:32 20° NNE 22:15:32 20° NNE
Cosmos 1980 Rocket 3.6 22:30:46 10° NNW 22:35:28 30° NE 22:35:28 30° NE
CZ-4C R/B 3.7 22:30:05 10° NW 22:36:22 42° NNE 22:38:44 33° ENE
Nadezhda 3 Rocket 4.4 22:38:52 57° NNE 22:38:52 57° NNE 22:43:53 10° NNE
COSMOS 2455 4.2 22:54:29 10° NW 22:58:18 31° W 22:58:18 31° W
Terra 4.3 23:11:38 15° WNW 23:11:38 15° WNW 23:13:21 10° NW
ATLAS CENTAUR R/B 4.2 23:07:10 10° NNW 23:08:02 15° NNW 23:08:02 15° NNW
ATLAS 5 CENTAUR R/B 4.1 23:20:05 19° NE 23:20:05 19° NE 23:21:36 10° NE
Cosmos 1833 Rocket 4.4 23:28:31 25° NE 23:28:31 25° NE 23:30:57 10° NE
USA 234 3.9 23:35:07 10° ENE 23:41:24 52° N 23:47:42 10° WNW
Mayak 1.7 23:51:07 10° NNW 23:52:06 13° NW 23:52:06 13° NW
SL-16 R/B 4.1 23:52:44 25° ENE 23:53:51 26° NE 23:58:53 10° N
